Time,TemperatureF,DewpointF,PressureIn,WindDirection,WindDirectionDegrees,WindSpeedMPH,WindSpeedGustMPH,Humidity,HourlyPrecipIn,Conditions,Clouds,dailyrainin,SoftwareType,DateUTC
2013-03-30 00:15:00,38.5,25.0,30.23,SSE,159,0.0,1.0,59,0.00,,,0.00,weatherlink.com 1.10,2013-03-30 04:15:00,
2013-03-30 00:33:00,37.3,26.0,30.23,ENE,63,0.0,1.0,64,0.00,,,0.00,weatherlink.com 1.10,2013-03-30 04:33:00,
2013-03-30 00:51:00,36.8,26.0,30.23,WNW,293,0.0,1.0,66,0.00,,,0.00,weatherlink.com 1.10,2013-03-30 04:51:00,
2013-03-30 01:11:00,36.3,26.0,30.23,South,176,0.0,0.0,66,0.00,,,0.00,weatherlink.com 1.10,2013-03-30 05:11:00,
2013-03-30 01:29:00,35.4,27.0,30.23,South,176,0.0,0.0,70,0.00,,,0.00,weatherlink.com 1.10,2013-03-30 05:29:00,
2013-03-30 01:47:00,34.2,26.0,30.23,South,176,0.0,0.0,73,0.00,,,0.00,weatherlink.com 1.10,2013-03-30 05:47:00,
2013-03-30 02:06:00,33.9,26.0,30.23,South,176,0.0,0.0,74,0.00,,,0.00,weatherlink.com 1.10,2013-03-30 06:06:00,
2013-03-30 02:24:00,33.4,26.0,30.23,South,176,0.0,0.0,75,0.00,,,0.00,weatherlink.com 1.10,2013-03-30 06:24:00,
2013-03-30 02:44:00,32.4,26.0,30.23,South,176,0.0,0.0,77,0.00,,,0.00,weatherlink.com 1.10,2013-03-30 06:44:00,
2013-03-30 03:02:00,31.6,26.0,30.23,South,176,0.0,0.0,79,0.00,,,0.00,weatherlink.com 1.10,2013-03-30 07:02:00,
2013-03-30 03:20:00,31.1,26.0,30.23,South,176,0.0,0.0,80,0.00,,,0.00,weatherlink.com 1.10,2013-03-30 07:20:00,
2013-03-30 03:39:00,30.4,25.0,30.23,South,176,0.0,0.0,81,0.00,,,0.00,weatherlink.com 1.10,2013-03-30 07:39:00,
2013-03-30 03:57:00,29.7,25.0,30.23,South,176,0.0,0.0,83,0.00,,,0.00,weatherlink.com 1.10,2013-03-30 07:57:00,
2013-03-30 04:17:00,29.6,25.0,30.23,South,176,0.0,0.0,82,0.00,,,0.00,weatherlink.com 1.10,2013-03-30 08:17:00,
2013-03-30 04:35:00,29.2,25.0,30.23,South,176,0.0,0.0,84,0.00,,,0.00,weatherlink.com 1.10,2013-03-30 08:35:00,
2013-03-30 04:53:00,29.3,25.0,30.23,South,176,0.0,0.0,84,0.00,,,0.00,weatherlink.com 1.10,2013-03-30 08:53:00,
2013-03-30 05:13:00,27.8,24.0,30.23,South,176,0.0,0.0,84,0.00,,,0.00,weatherlink.com 1.10,2013-03-30 09:13:00,
2013-03-30 05:31:00,27.2,24.0,30.23,South,176,0.0,0.0,86,0.00,,,0.00,weatherlink.com 1.10,2013-03-30 09:31:00,
2013-03-30 05:49:00,26.9,24.0,30.23,South,176,0.0,0.0,88,0.00,,,0.00,weatherlink.com 1.10,2013-03-30 09:49:00,
2013-03-30 06:07:00,26.9,24.0,30.23,South,176,0.0,0.0,88,0.00,,,0.00,weatherlink.com 1.10,2013-03-30 10:07:00,
2013-03-30 06:27:00,26.6,24.0,30.24,South,176,0.0,0.0,88,0.00,,,0.00,weatherlink.com 1.10,2013-03-30 10:27:00,
2013-03-30 06:45:00,26.5,24.0,30.25,South,176,0.0,0.0,89,0.00,,,0.00,weatherlink.com 1.10,2013-03-30 10:45:00,
2013-03-30 07:03:00,25.6,23.0,30.25,South,176,0.0,0.0,90,0.00,,,0.00,weatherlink.com 1.10,2013-03-30 11:03:00,
2013-03-30 07:23:00,26.2,24.0,30.25,South,176,0.0,0.0,90,0.00,,,0.00,weatherlink.com 1.10,2013-03-30 11:23:00,
2013-03-30 07:41:00,27.8,24.0,30.25,South,176,0.0,0.0,87,0.00,,,0.00,weatherlink.com 1.10,2013-03-30 11:41:00,
2013-03-30 07:59:00,29.4,25.0,30.25,South,176,0.0,0.0,83,0.00,,,0.00,weatherlink.com 1.10,2013-03-30 11:59:00,
2013-03-30 08:19:00,29.3,25.0,30.26,SE,139,0.0,1.0,84,0.00,,,0.00,weatherlink.com 1.10,2013-03-30 12:19:00,
2013-03-30 08:37:00,31.9,28.0,30.26,SE,139,0.0,0.0,84,0.00,,,0.00,weatherlink.com 1.10,2013-03-30 12:37:00,
2013-03-30 08:55:00,33.4,29.0,30.27,SE,139,0.0,1.0,83,0.00,,,0.00,weatherlink.com 1.10,2013-03-30 12:55:00,
2013-03-30 09:15:00,35.9,29.0,30.27,ESE,112,1.0,2.0,77,0.00,,,0.00,weatherlink.com 1.10,2013-03-30 13:15:00,
2013-03-30 09:33:00,38.0,29.0,30.28,ESE,113,2.0,3.0,70,0.00,,,0.00,weatherlink.com 1.10,2013-03-30 13:33:00,
2013-03-30 09:51:00,40.3,29.0,30.28,ENE,70,0.0,2.0,65,0.00,,,0.00,weatherlink.com 1.10,2013-03-30 13:51:00,
2013-03-30 10:09:00,41.5,27.0,30.27,ESE,122,0.0,5.0,57,0.00,,,0.00,weatherlink.com 1.10,2013-03-30 14:09:00,
2013-03-30 10:29:00,42.9,26.0,30.27,East,79,1.0,4.0,52,0.00,,,0.00,weatherlink.com 1.10,2013-03-30 14:29:00,
2013-03-30 10:47:00,44.4,28.0,30.27,SE,127,1.0,4.0,52,0.00,,,0.00,weatherlink.com 1.10,2013-03-30 14:47:00,
2013-03-30 11:05:00,45.3,27.0,30.26,ESE,117,0.0,5.0,49,0.00,,,0.00,weatherlink.com 1.10,2013-03-30 15:05:00,
2013-03-30 11:25:00,46.3,26.0,30.25,East,93,2.0,5.0,45,0.00,,,0.00,weatherlink.com 1.10,2013-03-30 15:25:00,
2013-03-30 11:43:00,46.9,23.0,30.25,SE,131,4.0,5.0,39,0.00,,,0.00,weatherlink.com 1.10,2013-03-30 15:43:00,
2013-03-30 12:01:00,48.2,25.0,30.24,NE,44,4.0,5.0,41,0.00,,,0.00,weatherlink.com 1.10,2013-03-30 16:01:00,
2013-03-30 12:21:00,47.5,23.0,30.24,SW,233,1.0,7.0,39,0.00,,,0.00,weatherlink.com 1.10,2013-03-30 16:21:00,
2013-03-30 12:39:00,48.3,20.0,30.23,East,98,2.0,7.0,33,0.00,,,0.00,weatherlink.com 1.10,2013-03-30 16:39:00,
2013-03-30 12:57:00,49.0,22.0,30.22,SSE,162,3.0,6.0,35,0.00,,,0.00,weatherlink.com 1.10,2013-03-30 16:57:00,
2013-03-30 13:15:00,49.2,22.0,30.21,SW,217,2.0,6.0,35,0.00,,,0.00,weatherlink.com 1.10,2013-03-30 17:15:00,
2013-03-30 13:35:00,50.3,23.0,30.20,NE,42,3.0,7.0,35,0.00,,,0.00,weatherlink.com 1.10,2013-03-30 17:35:00,
2013-03-30 13:53:00,50.8,26.0,30.19,ENE,65,3.0,9.0,38,0.00,,,0.00,weatherlink.com 1.10,2013-03-30 17:53:00,
2013-03-30 14:11:00,50.9,22.0,30.18,SSE,160,2.0,5.0,32,0.00,,,0.00,weatherlink.com 1.10,2013-03-30 18:11:00,
2013-03-30 14:31:00,50.5,23.0,30.18,SE,134,3.0,5.0,34,0.00,,,0.00,weatherlink.com 1.10,2013-03-30 18:31:00,
2013-03-30 14:49:00,51.6,22.0,30.18,SSE,152,3.0,9.0,32,0.00,,,0.00,weatherlink.com 1.10,2013-03-30 18:49:00,
2013-03-30 15:07:00,51.8,23.0,30.18,ENE,57,3.0,6.0,32,0.00,,,0.00,weatherlink.com 1.10,2013-03-30 19:07:00,
2013-03-30 15:27:00,52.6,23.0,30.17,SSE,150,4.0,15.0,32,0.00,,,0.00,weatherlink.com 1.10,2013-03-30 19:27:00,
2013-03-30 15:45:00,53.6,23.0,30.16,NNW,330,3.0,13.0,30,0.00,,,0.00,weatherlink.com 1.10,2013-03-30 19:45:00,
2013-03-30 16:03:00,53.7,25.0,30.15,NE,46,4.0,6.0,33,0.00,,,0.00,weatherlink.com 1.10,2013-03-30 20:03:00,
2013-03-30 16:23:00,53.4,22.0,30.14,WNW,293,3.0,6.0,29,0.00,,,0.00,weatherlink.com 1.10,2013-03-30 20:23:00,
2013-03-30 16:41:00,54.6,24.0,30.14,NE,56,1.0,5.0,30,0.00,,,0.00,weatherlink.com 1.10,2013-03-30 20:41:00,
2013-03-30 16:59:00,53.7,24.0,30.13,NNW,335,1.0,5.0,31,0.00,,,0.00,weatherlink.com 1.10,2013-03-30 20:59:00,
2013-03-30 17:17:00,53.9,21.0,30.13,ESE,110,2.0,7.0,28,0.00,,,0.00,weatherlink.com 1.10,2013-03-30 21:17:00,
2013-03-30 17:37:00,54.6,20.0,30.12,NNW,330,2.0,6.0,26,0.00,,,0.00,weatherlink.com 1.10,2013-03-30 21:37:00,
2013-03-30 17:55:00,54.3,22.0,30.12,ENE,65,2.0,5.0,28,0.00,,,0.00,weatherlink.com 1.10,2013-03-30 21:55:00,
2013-03-30 18:13:00,53.7,21.0,30.12,NE,34,2.0,5.0,28,0.00,,,0.00,weatherlink.com 1.10,2013-03-30 22:13:00,
2013-03-30 18:33:00,53.0,23.0,30.12,East,97,1.0,3.0,31,0.00,,,0.00,weatherlink.com 1.10,2013-03-30 22:33:00,
2013-03-30 18:51:00,52.0,23.0,30.12,ENE,58,1.0,4.0,32,0.00,,,0.00,weatherlink.com 1.10,2013-03-30 22:51:00,
2013-03-30 19:09:00,50.5,22.0,30.12,ENE,78,1.0,3.0,33,0.00,,,0.00,weatherlink.com 1.10,2013-03-30 23:09:00,
2013-03-30 19:29:00,49.3,22.0,30.12,ENE,65,0.0,0.0,34,0.00,,,0.00,weatherlink.com 1.10,2013-03-30 23:29:00,
2013-03-30 19:47:00,47.5,22.0,30.12,ENE,65,0.0,1.0,37,0.00,,,0.00,weatherlink.com 1.10,2013-03-30 23:47:00,
2013-03-30 20:05:00,46.0,23.0,30.11,ENE,65,0.0,1.0,41,0.00,,,0.00,weatherlink.com 1.10,2013-03-31 00:05:00,
2013-03-30 20:23:00,44.6,25.0,30.11,NE,51,1.0,1.0,47,0.00,,,0.00,weatherlink.com 1.10,2013-03-31 00:23:00,
2013-03-30 20:43:00,43.5,25.0,30.11,North,360,0.0,1.0,49,0.00,,,0.00,weatherlink.com 1.10,2013-03-31 00:43:00,
2013-03-30 21:01:00,42.2,25.0,30.11,NNW,339,1.0,1.0,51,0.00,,,0.00,weatherlink.com 1.10,2013-03-31 01:01:00,
2013-03-30 21:20:00,41.9,24.0,30.11,NNW,338,0.0,1.0,50,0.00,,,0.00,weatherlink.com 1.10,2013-03-31 01:20:00,
2013-03-30 21:38:00,42.8,23.0,30.10,NNW,338,0.0,0.0,45,0.00,,,0.00,weatherlink.com 1.10,2013-03-31 01:38:00,
2013-03-30 21:56:00,43.4,22.0,30.10,North,8,0.0,1.0,42,0.00,,,0.00,weatherlink.com 1.10,2013-03-31 01:56:00,
2013-03-30 22:16:00,41.5,22.0,30.10,North,11,0.0,1.0,46,0.00,,,0.00,weatherlink.com 1.10,2013-03-31 02:16:00,
2013-03-30 22:34:00,41.4,21.0,30.09,NE,50,1.0,2.0,45,0.00,,,0.00,weatherlink.com 1.10,2013-03-31 02:34:00,
2013-03-30 22:52:00,43.2,21.0,30.09,ESE,115,2.0,3.0,42,0.00,,,0.00,weatherlink.com 1.10,2013-03-31 02:52:00,
2013-03-30 23:12:00,42.2,23.0,30.09,ESE,105,1.0,3.0,47,0.00,,,0.00,weatherlink.com 1.10,2013-03-31 03:12:00,
2013-03-30 23:30:00,41.9,21.0,30.08,NNW,334,2.0,2.0,43,0.00,,,0.00,weatherlink.com 1.10,2013-03-31 03:30:00,
2013-03-30 23:49:00,44.2,20.0,30.07,ENE,75,2.0,5.0,39,0.00,,,0.00,weatherlink.com 1.10,2013-03-31 03:49:00,